Weather History for KFXY - October, 2012

Change the Weather History Date:

Monday, October 8, 2012

  Actual Average Record
Temperature  
Mean Temperature 52 °F -  
Max Temperature 68 °F 62 °F 82 °F (2011)
Min Temperature 35 °F 40 °F 33 °F (2014)
Degree Days  
Heating Degree Days 14    
Growing Degree Days 2 (Base 50)    
Moisture  
Dew Point 27 °F    
Average Humidity 46    
Maximum Humidity 82    
Minimum Humidity 16    
Precipitation  
Precipitation 0.05 in - - ()
Sea Level Pressure  
Sea Level Pressure 29.81 in    
Wind  
Wind Speed 12 mph (SSW)    
Max Wind Speed 26 mph    
Max Gust Speed 37 mph    
Visibility 10 miles    
Events Rain    
Averages and records for this station are not official NWS values.
T = Trace of Precipitation, MM = Missing Value Source: NWS Daily Summary

Daily Weather History Graph

Daily Weather History Graph

Search for Another Location

Airport or City:

Trip Planner

Search our weather history database for the weather conditions in past years. The results will help you decide how hot, cold, wet, or windy it might be!

Date:

Astronomy

Oct. 08, 2012 Rise Set
Actual Time 7:20 AM CDT 6:42 PM CDT
Civil Twilight 6:52 AM CDT 7:10 PM CDT
Nautical Twilight 6:19 AM CDT 7:43 PM CDT
Astronomical Twilight 5:45 AM CDT 8:16 PM CDT
Moon No Moon Rise 2:42 PM CDT (10/8)
Length of Visible Light 12h 18m
Length of Day
11h 21m
Last Quarter, 46% of the Moon is Illuminated
Oct 8
Last Quarter
Oct 15
New
Oct 21
First Quarter
Oct 29
Full
Nov 6
Last Quarter

Hourly Weather History & Observations

Time (CDT) Temp. Windchill Dew Point Humidity Pressure Visibility Wind Dir Wind Speed Gust Speed Precip Events Conditions
12:15 AM 37.4 °F 31.4 °F 21.2 °F 52% 29.95 in 10.0 mi South 8.1 mph - N/A   Clear
12:35 AM 37.4 °F 31.4 °F 21.2 °F 52% 29.94 in 10.0 mi South 8.1 mph - N/A   Clear
12:55 AM 37.4 °F 31.4 °F 21.2 °F 52% 29.94 in 10.0 mi South 8.1 mph - N/A   Clear
1:15 AM 37.4 °F 30.3 °F 21.2 °F 52% 29.93 in 10.0 mi South 10.4 mph - N/A   Clear
1:35 AM 37.4 °F 30.3 °F 21.2 °F 52% 29.93 in 10.0 mi South 10.4 mph - N/A   Clear
1:55 AM 37.4 °F 29.3 °F 23.0 °F 56% 29.92 in 10.0 mi South 12.7 mph - N/A   Clear
2:15 AM 37.4 °F 29.3 °F 23.0 °F 56% 29.92 in 10.0 mi South 12.7 mph - N/A   Clear
2:35 AM 37.4 °F 28.9 °F 23.0 °F 56% 29.91 in 10.0 mi South 13.8 mph - N/A   Mostly Cloudy
2:55 AM 37.4 °F 29.8 °F 23.0 °F 56% 29.90 in 10.0 mi South 11.5 mph 17.3 mph N/A   Overcast
3:15 AM 37.4 °F 30.3 °F 23.0 °F 56% 29.90 in 10.0 mi South 10.4 mph - N/A   Scattered Clouds
3:35 AM 37.4 °F 29.8 °F 23.0 °F 56% 29.89 in 10.0 mi SSW 11.5 mph - N/A   Clear
3:55 AM 37.4 °F 30.8 °F 24.8 °F 60% 29.89 in 10.0 mi SSW 9.2 mph - N/A   Scattered Clouds
4:15 AM 37.4 °F 30.8 °F 24.8 °F 60% 29.89 in 10.0 mi SSW 9.2 mph - N/A   Scattered Clouds
4:35 AM 37.4 °F 30.8 °F 26.6 °F 65% 29.89 in 10.0 mi SSW 9.2 mph - N/A   Clear
4:55 AM 37.4 °F 32.1 °F 26.6 °F 65% 29.88 in 10.0 mi SSW 6.9 mph - N/A   Clear
5:15 AM 37.4 °F 32.1 °F 26.6 °F 65% 29.88 in 10.0 mi South 6.9 mph - N/A   Clear
5:35 AM 35.6 °F 29.9 °F 26.6 °F 70% 29.88 in 10.0 mi SSW 6.9 mph - N/A   Clear
5:55 AM 35.6 °F 29.9 °F 28.4 °F 75% 29.88 in 10.0 mi SSW 6.9 mph - N/A   Clear
6:15 AM 37.4 °F 32.8 °F 28.4 °F 70% 29.88 in 10.0 mi SSW 5.8 mph - N/A   Scattered Clouds
6:35 AM 35.6 °F 30.7 °F 28.4 °F 75% 29.87 in 10.0 mi SSW 5.8 mph - N/A   Scattered Clouds
6:55 AM 37.4 °F 31.4 °F 28.4 °F 70% 29.87 in 10.0 mi South 8.1 mph - N/A   Mostly Cloudy
7:15 AM 37.4 °F 30.8 °F 30.2 °F 75% 29.87 in 10.0 mi SSW 9.2 mph - N/A   Mostly Cloudy
7:35 AM 37.4 °F 30.3 °F 30.2 °F 75% 29.86 in 10.0 mi SSW 10.4 mph 16.1 mph N/A   Overcast
7:55 AM 39.2 °F 34.2 °F 30.2 °F 70% 29.86 in 10.0 mi SSW 6.9 mph - N/A   Overcast
8:15 AM 41.0 °F 34.7 °F 30.2 °F 65% 29.86 in 10.0 mi SSW 10.4 mph 16.1 mph N/A   Overcast
8:35 AM 41.0 °F 34.3 °F 30.2 °F 65% 29.86 in 10.0 mi SSW 11.5 mph 18.4 mph N/A   Overcast
8:55 AM 41.0 °F 33.5 °F 30.2 °F 65% 29.85 in 10.0 mi SSW 13.8 mph 18.4 mph N/A   Scattered Clouds
9:15 AM 42.8 °F 35.1 °F 30.2 °F 61% 29.84 in 10.0 mi SSW 16.1 mph 24.2 mph N/A   Scattered Clouds
9:55 AM 44.6 °F 37.4 °F 30.2 °F 57% 29.84 in 10.0 mi SSW 16.1 mph 23.0 mph N/A   Mostly Cloudy
10:15 AM 46.4 °F 39.8 °F 30.2 °F 53% 29.84 in 10.0 mi SSW 16.1 mph 19.6 mph N/A   Scattered Clouds
10:35 AM 46.4 °F 40.4 °F 30.2 °F 53% 29.84 in 10.0 mi SSW 13.8 mph - N/A   Scattered Clouds
10:55 AM 50.0 °F - 30.2 °F 47% 29.83 in 10.0 mi SSW 16.1 mph 20.7 mph N/A   Overcast
11:15 AM 51.8 °F - 30.2 °F 44% 29.82 in 10.0 mi SSW 17.3 mph - N/A   Overcast
11:35 AM 53.6 °F - 30.2 °F 41% 29.81 in 10.0 mi SSW 16.1 mph 24.2 mph N/A   Mostly Cloudy
11:55 AM 55.4 °F - 28.4 °F 36% 29.81 in 10.0 mi SSW 18.4 mph 21.9 mph N/A   Mostly Cloudy
12:15 PM 55.4 °F - 28.4 °F 36% 29.80 in 10.0 mi SSW 18.4 mph - N/A   Overcast
12:35 PM 59.0 °F - 28.4 °F 31% 29.79 in 10.0 mi South 20.7 mph 25.3 mph N/A   Overcast
12:55 PM 60.8 °F - 28.4 °F 29% 29.77 in 10.0 mi South 23.0 mph 31.1 mph N/A   Scattered Clouds
1:15 PM 62.6 °F - 26.6 °F 26% 29.76 in 10.0 mi SSW 23.0 mph 29.9 mph N/A   Clear
1:35 PM 62.6 °F - 24.8 °F 24% 29.75 in 10.0 mi SSW 21.9 mph 29.9 mph N/A   Clear
1:55 PM 66.2 °F - 23.0 °F 19% 29.74 in 10.0 mi SSW 20.7 mph 31.1 mph N/A   Clear
2:15 PM 66.2 °F - 21.2 °F 18% 29.72 in 10.0 mi SW 25.3 mph 36.8 mph N/A   Clear
2:35 PM 68.0 °F - 19.4 °F 16% 29.71 in 10.0 mi SW 25.3 mph 36.8 mph N/A   Clear
3:15 PM 64.4 °F - 19.4 °F 18% 29.70 in 10.0 mi SSW 23.0 mph 29.9 mph N/A   Scattered Clouds
3:35 PM 64.4 °F - 21.2 °F 19% 29.70 in 10.0 mi SSW 20.7 mph 31.1 mph N/A   Scattered Clouds
3:55 PM 64.4 °F - 21.2 °F 19% 29.71 in 10.0 mi SSW 23.0 mph 33.4 mph N/A   Mostly Cloudy
4:15 PM 64.4 °F - 23.0 °F 21% 29.70 in 7.0 mi SSW 26.5 mph 35.7 mph N/A   Mostly Cloudy
4:35 PM 64.4 °F - 23.0 °F 21% 29.70 in 10.0 mi SSW 25.3 mph 35.7 mph N/A   Scattered Clouds
4:55 PM 64.4 °F - 21.2 °F 19% 29.70 in 10.0 mi SW 23.0 mph 31.1 mph N/A   Clear
5:15 PM 64.4 °F - 21.2 °F 19% 29.70 in 10.0 mi SW 23.0 mph 31.1 mph N/A   Clear
5:35 PM 64.4 °F - 21.2 °F 19% 29.70 in 10.0 mi SSW 23.0 mph 32.2 mph N/A   Clear
5:55 PM 62.6 °F - 23.0 °F 22% 29.70 in 10.0 mi SSW 18.4 mph 28.8 mph N/A   Clear
6:15 PM 62.6 °F - 23.0 °F 22% 29.70 in 10.0 mi SSW 18.4 mph 27.6 mph N/A   Clear
6:35 PM 62.6 °F - 23.0 °F 22% 29.70 in 10.0 mi SSW 18.4 mph 24.2 mph N/A   Clear
6:55 PM 60.8 °F - 24.8 °F 25% 29.71 in 10.0 mi SSW 15.0 mph - N/A   Scattered Clouds
7:35 PM 60.8 °F - 24.8 °F 25% 29.72 in 10.0 mi SSW 16.1 mph 19.6 mph N/A   Clear
7:55 PM 59.0 °F - 24.8 °F 27% 29.72 in 10.0 mi SSW 13.8 mph 18.4 mph N/A   Scattered Clouds
8:15 PM 59.0 °F - 24.8 °F 27% 29.72 in 10.0 mi SSW 12.7 mph 18.4 mph N/A   Mostly Cloudy
8:55 PM 59.0 °F - 26.6 °F 29% 29.74 in 10.0 mi SW 12.7 mph - N/A   Overcast
9:15 PM 59.0 °F - 26.6 °F 29% 29.76 in 10.0 mi WSW 10.4 mph - N/A   Overcast
9:35 PM 59.0 °F - 26.6 °F 29% 29.77 in 10.0 mi WSW 6.9 mph - N/A   Overcast
9:55 PM 57.2 °F - 30.2 °F 36% 29.78 in 10.0 mi West 9.2 mph - N/A Rain Rain
10:15 PM 51.8 °F - 41.0 °F 67% 29.79 in 10.0 mi WNW 6.9 mph - N/A   Drizzle
10:35 PM 53.6 °F - 42.8 °F 67% 29.79 in 10.0 mi NW 9.2 mph - N/A Rain Light Rain
10:55 PM 51.8 °F - 44.6 °F 76% 29.82 in 10.0 mi WNW 11.5 mph - N/A   Drizzle
11:35 PM 51.8 °F - 44.6 °F 76% 29.82 in 10.0 mi WNW 6.9 mph - 0.04 in Rain Light Rain
11:55 PM 50.0 °F - 44.6 °F 82% 29.82 in 10.0 mi WNW 5.8 mph - 0.05 in Rain Light Rain